Weather History for O'Neill, NE

Change the Weather History Date:

Thursday, May 1, 2014

  Actual Average Record
Temperature  
Mean Temperature 46 °F -  
Max Temperature 55 °F 65 °F 95 °F (1992)
Min Temperature 39 °F 39 °F 26 °F (1990)
Degree Days  
Heating Degree Days 18    
Moisture  
Dew Point 31 °F    
Average Humidity 58    
Maximum Humidity 78    
Minimum Humidity 33    
Precipitation  
Precipitation 0.00 in - - ()
Sea Level Pressure  
Sea Level Pressure 30.00 in    
Wind  
Wind Speed 15 mph (NW)    
Max Wind Speed 29 mph    
Max Gust Speed 34 mph    
Visibility 10 miles    
Events      
Averages and records for this station are not official NWS values.
T = Trace of Precipitation, MM = Missing Value Source: NWS Daily Summary

Daily Weather History Graph

Daily Weather History Graph

Search for Another Location

Airport:

Trip Planner

Search our weather history database for the weather conditions in past years. The results will help you decide how hot, cold, wet, or windy it might be!

Date:

Astronomy

May. 01, 2014 Rise Set
Actual Time 6:29 AM CDT 8:34 PM CDT
Civil Twilight 5:58 AM CDT 9:05 PM CDT
Nautical Twilight 5:21 AM CDT 9:43 PM CDT
Astronomical Twilight 4:40 AM CDT 10:24 PM CDT
Moon 8:17 AM CDT (5/1) 11:10 PM CDT (5/1)
Length of Visible Light 15h 06m
Length of Day
14h 05m
Waxing Crescent, 7% of the Moon is Illuminated
May 1
Waxing Crescent
May 6
First Quarter
May 14
Full
May 21
Last Quarter
May 28
New

Hourly Weather History & Observations

Time (CDT) Temp. Windchill Dew Point Humidity Pressure Visibility Wind Dir Wind Speed Gust Speed Precip Events Conditions
12:15 AM 41.9 °F 35.9 °F 33.1 °F 71% 30.01 in 10.0 mi NW 10.4 mph - N/A   Overcast
12:35 AM 41.9 °F 35.9 °F 33.1 °F 71% 30.00 in 10.0 mi NW 10.4 mph - N/A   Overcast
12:55 AM 42.4 °F 35.3 °F 33.8 °F 71% 30.00 in 10.0 mi NNW 13.8 mph 18.4 mph N/A   Overcast
1:15 AM 42.8 °F 35.4 °F 34.2 °F 72% 30.00 in 10.0 mi NNW 15.0 mph - N/A   Overcast
1:35 AM 42.8 °F 35.4 °F 34.3 °F 72% 30.00 in 10.0 mi NW 15.0 mph - N/A   Overcast
1:55 AM 42.4 °F 35.0 °F 34.2 °F 72% 30.00 in 10.0 mi NW 15.0 mph - N/A   Overcast
2:15 AM 42.1 °F 34.2 °F 34.9 °F 76% 30.00 in 10.0 mi NW 16.1 mph - N/A   Overcast
2:35 AM 42.4 °F 34.4 °F 34.0 °F 72% 30.00 in 10.0 mi NW 17.3 mph 26.5 mph N/A   Overcast
2:55 AM 41.9 °F 33.7 °F 34.0 °F 73% 29.99 in 10.0 mi NNW 17.3 mph 24.2 mph N/A   Overcast
3:15 AM 41.9 °F 33.1 °F 33.8 °F 73% 29.99 in 10.0 mi NNW 19.6 mph 26.5 mph N/A   Overcast
3:35 AM 41.0 °F 33.5 °F 33.8 °F 76% 29.98 in 10.0 mi NW 13.8 mph 20.7 mph N/A   Overcast
3:55 AM 41.0 °F 34.3 °F 33.8 °F 76% 29.99 in 10.0 mi NW 11.5 mph - N/A   Overcast
4:15 AM 40.8 °F 33.7 °F 32.9 °F 73% 29.99 in 10.0 mi NW 12.7 mph - N/A   Overcast
4:35 AM 39.6 °F 32.1 °F 32.5 °F 76% 29.99 in 10.0 mi NW 12.7 mph - N/A   Scattered Clouds
4:55 AM 39.6 °F 31.3 °F 32.7 °F 76% 29.98 in 10.0 mi NW 15.0 mph 20.7 mph N/A   Mostly Cloudy
5:15 AM 40.1 °F 33.2 °F 32.9 °F 75% 29.98 in 10.0 mi NW 11.5 mph - N/A   Overcast
5:35 AM 39.9 °F 33.4 °F 32.9 °F 76% 29.99 in 10.0 mi NW 10.4 mph - N/A   Overcast
5:55 AM 39.4 °F 31.4 °F 32.9 °F 78% 29.98 in 10.0 mi NW 13.8 mph - N/A   Scattered Clouds
6:15 AM 39.6 °F 31.0 °F 32.5 °F 76% 29.99 in 10.0 mi NW 16.1 mph 20.7 mph N/A   Scattered Clouds
6:35 AM 39.2 °F 31.6 °F 32.2 °F 76% 29.99 in 10.0 mi NW 12.7 mph - N/A   Scattered Clouds
6:55 AM 40.1 °F 32.7 °F 32.7 °F 75% 29.99 in 10.0 mi NNW 12.7 mph 21.9 mph N/A   Mostly Cloudy
7:15 AM 39.4 °F 30.4 °F 32.9 °F 78% 30.00 in 10.0 mi NW 17.3 mph - N/A   Scattered Clouds
7:35 AM 40.6 °F 30.9 °F 32.5 °F 73% 30.00 in 10.0 mi NNW 21.9 mph - N/A   Mostly Cloudy
7:55 AM 41.0 °F 32.5 °F 32.9 °F 73% 30.00 in 10.0 mi NW 17.3 mph 21.9 mph N/A   Overcast
8:15 AM 41.5 °F 33.5 °F 32.7 °F 71% 30.00 in 10.0 mi NW 16.1 mph - N/A   Overcast
8:35 AM 42.3 °F 33.3 °F 32.9 °F 69% 30.01 in 10.0 mi NW 20.7 mph 26.5 mph N/A   Overcast
8:55 AM 43.2 °F 34.5 °F 32.5 °F 66% 30.01 in 10.0 mi NNW 20.7 mph 25.3 mph N/A   Overcast
9:15 AM 44.2 °F 35.0 °F 32.0 °F 62% 30.01 in 10.0 mi NW 25.3 mph 28.8 mph N/A   Overcast
9:35 AM 44.6 °F 36.4 °F 32.0 °F 61% 30.01 in 10.0 mi NW 20.7 mph 27.6 mph N/A   Overcast
9:55 AM 44.6 °F 36.4 °F 32.0 °F 61% 30.01 in 10.0 mi NNW 20.7 mph - N/A   Overcast
10:15 AM 45.9 °F 37.4 °F 32.4 °F 59% 30.01 in 10.0 mi NW 24.2 mph 33.4 mph N/A   Overcast
10:35 AM 46.9 °F - 32.4 °F 57% 30.01 in 10.0 mi NW 20.7 mph 31.1 mph N/A   Overcast
10:55 AM 48.0 °F - 32.5 °F 55% 30.01 in 10.0 mi NNW 23.0 mph 29.9 mph N/A   Overcast
11:15 AM 50.0 °F - 32.9 °F 52% 30.02 in 10.0 mi NW 24.2 mph 32.2 mph N/A   Overcast
11:35 AM 49.8 °F - 31.3 °F 49% 30.01 in 10.0 mi NNW 28.8 mph 34.5 mph N/A   Overcast
11:55 AM 50.4 °F - 31.3 °F 48% 30.02 in 10.0 mi NNW 25.3 mph 33.4 mph N/A   Overcast
12:15 PM 49.3 °F - 31.1 °F 50% 30.02 in 10.0 mi NNW 24.2 mph 29.9 mph N/A   Overcast
12:35 PM 49.8 °F - 31.8 °F 50% 30.02 in 10.0 mi NNW 19.6 mph 29.9 mph N/A   Overcast
12:55 PM 50.0 °F - 32.0 °F 50% 30.02 in 10.0 mi NNW 23.0 mph 31.1 mph N/A   Overcast
1:15 PM 51.3 °F - 30.9 °F 46% 30.02 in 10.0 mi NNW 24.2 mph 32.2 mph N/A   Overcast
1:35 PM 50.4 °F - 30.4 °F 46% 30.02 in 10.0 mi NNW 23.0 mph 33.4 mph N/A   Overcast
1:55 PM 50.9 °F - 29.3 °F 43% 30.02 in 10.0 mi NNW 23.0 mph 29.9 mph N/A   Overcast
2:15 PM 50.7 °F - 29.5 °F 44% 30.02 in 10.0 mi NNW 21.9 mph 33.4 mph N/A   Overcast
2:35 PM 51.6 °F - 29.3 °F 42% 30.02 in 10.0 mi NW 23.0 mph 31.1 mph N/A   Overcast
2:55 PM 51.8 °F - 28.4 °F 41% 30.03 in 10.0 mi NNW 21.9 mph 32.2 mph N/A   Overcast
3:15 PM 52.2 °F - 28.8 °F 41% 30.03 in 10.0 mi NNW 20.7 mph - N/A   Overcast
3:35 PM 50.9 °F - 29.5 °F 44% 30.03 in 10.0 mi NNW 23.0 mph 26.5 mph N/A   Overcast
3:55 PM 51.8 °F - 29.5 °F 42% 30.02 in 10.0 mi NNW 20.7 mph 26.5 mph N/A   Overcast
4:15 PM 51.6 °F - 29.5 °F 43% 30.02 in 10.0 mi NNW 18.4 mph 26.5 mph N/A   Overcast
5:15 PM 52.9 °F - 27.3 °F 37% 30.00 in 10.0 mi NNW 20.7 mph 24.2 mph N/A   Mostly Cloudy
5:35 PM 53.2 °F - 26.8 °F 36% 30.00 in 10.0 mi NNW 13.8 mph 25.3 mph N/A   Mostly Cloudy
5:55 PM 53.2 °F - 26.8 °F 36% 30.00 in 10.0 mi NNW 17.3 mph 21.9 mph N/A   Overcast
6:15 PM 53.6 °F - 26.2 °F 35% 29.99 in 10.0 mi NNW 17.3 mph - N/A   Overcast
6:35 PM 54.7 °F - 26.2 °F 33% 30.00 in 10.0 mi North 16.1 mph 21.9 mph N/A   Overcast
6:55 PM 53.8 °F - 26.8 °F 35% 29.99 in 10.0 mi NNW 13.8 mph - N/A   Overcast
7:15 PM 52.9 °F - 24.8 °F 34% 29.99 in 10.0 mi NNW 12.7 mph 18.4 mph N/A   Mostly Cloudy
7:35 PM 51.3 °F - 27.1 °F 39% 29.98 in 10.0 mi North 9.2 mph - N/A   Scattered Clouds
7:55 PM 52.0 °F - 26.6 °F 37% 29.98 in 10.0 mi NNW 10.4 mph 17.3 mph N/A   Mostly Cloudy
8:15 PM 50.9 °F - 27.1 °F 40% 29.98 in 10.0 mi NNW 8.1 mph - N/A   Mostly Cloudy
8:35 PM 48.2 °F - 28.2 °F 46% 29.98 in 10.0 mi NW 5.8 mph - N/A   Scattered Clouds
8:55 PM 46.6 °F - 27.9 °F 48% 29.98 in 10.0 mi NW 6.9 mph - N/A   Scattered Clouds
9:15 PM 46.4 °F 42.4 °F 27.5 °F 48% 29.98 in 10.0 mi WNW 8.1 mph - N/A   Clear
9:35 PM 46.4 °F 42.4 °F 27.9 °F 48% 29.98 in 10.0 mi WNW 8.1 mph - N/A   Clear
9:55 PM 45.3 °F 41.1 °F 28.0 °F 51% 29.99 in 10.0 mi WNW 8.1 mph - N/A   Clear
10:15 PM 43.7 °F 39.7 °F 28.4 °F 55% 29.99 in 10.0 mi WNW 6.9 mph - N/A   Clear
10:35 PM 42.6 °F 38.4 °F 28.6 °F 58% 29.99 in 10.0 mi WNW 6.9 mph - N/A   Clear
10:55 PM 41.9 °F 36.9 °F 29.1 °F 61% 29.99 in 10.0 mi WNW 8.1 mph - N/A   Clear
11:15 PM 41.0 °F 35.8 °F 29.3 °F 63% 29.98 in 10.0 mi WNW 8.1 mph - N/A   Clear
11:35 PM 41.2 °F 35.5 °F 29.3 °F 63% 29.98 in 10.0 mi WNW 9.2 mph - N/A   Clear
11:55 PM 41.2 °F 36.0 °F 29.3 °F 63% 29.98 in 10.0 mi West 8.1 mph - N/A   Clear